[[{"header":{"parameterUnit":"m.s-1","parameterCategory":1,"la1":30.2991,"la2":30.254,"lo1":-89.0895,"lo2":-89.0444,"dy":0.0017,"dx":0.0017,"nx":28,"ny":28,"refTime":"2024-07-09T21:00:00:Z","depth":0,"parameterNumber":2,"parameterNumberName":"U-component_of_WINDS"},"data":[0,0,0,0,0,0,0,0,0,0,0,0,0,0,0,0,0,0,0,0,0,0,0,0,0,0,0,0,0,0,0,0,0,0,0,0,0,0,0,0,0,0,0,0,0,0,0,0,0,0,0,0,0,0,0,0,0,0,0.6613,0.6617,0,0.7006,0.7011,0.7015,0.7247,0.7248,0.7249,0.725,0.7653,0.7662,0.7672,0,0,0,0,0,0,0,0,0,0,0,0,0,0.6059,0.6068,0.6612,0.6617,0.6622,0.7006,0.7011,0.7017,0.7247,0.7248,0.7249,0.7251,0.7649,0.7661,0.7673,0,0,0,0,0,0,0,0,0,0,0,0,0,0.636,0.6071,0.6612,0.6784,0.6803,0.7005,0.7011,0.7018,0.7247,0.7248,0.725,0.7251,0.7646,0.766,0.7674,0.7735,0,0,0.7719,0.7726,0,0,0,0,0,0,0,0,0.6343,0.6381,0.6753,0.6772,0.6794,0.7079,0.6964,0.7258,0.7246,0.7078,0.725,0.7252,0.7461,0.7491,0.7561,0.7754,0.7772,0.772,0.7729,0.7736,0.774,0,0,0,0,0,0,0,0.6322,0.6365,0.6769,0.6759,0.6783,0.6841,0.6885,0.7021,0.7256,0.7093,0.7111,0.7154,0.7472,0.7546,0.7572,0.7777,0.772,0.7733,0.7742,0.7748,0.804,0.8039,0,0,0,0,0,0,0.6274,0.6346,0.6756,0.678,0.6568,0.6849,0.6899,0.6986,0.7255,0.7298,0.7152,0.7164,0.7521,0.7555,0.7587,0.7677,0.7736,0.7749,0.7758,0.8041,0.804,0.8039,0,0,0,0,0,0,0.6261,0.6308,0.674,0.6568,0.6628,0.6857,0.6953,0.6993,0.7068,0.7301,0.7343,0.7185,0.7523,0.7567,0.7697,0.7694,0.7756,0.7769,0.8042,0.8041,0.8039,0.7855,0,0,0,0,0,0,0.6244,0.6302,0.6328,0.6567,0.6636,0.6843,0.6953,0.7,0.7093,0.7111,0.7343,0.7383,0.7528,0.7674,0.7711,0.7716,0.7781,0.8044,0.8042,0.804,0.7863,0.7848,0.7835,0,0,0,0,0,0.6224,0.6261,0.6328,0.6377,0.6673,0.6842,0.6882,0.7048,0.7092,0.712,0.7269,0.7375,0.7688,0.7685,0.773,0.7738,0.8045,0.8042,0.804,0.7869,0.7851,0.7835,0,0,0,0,0,0,0.6017,0.6296,0.6373,0.6489,0.664,0.6881,0.6922,0.7023,0.7165,0.7176,0.7376,0.7427,0.7537,0.7651,0.7643,0.7811,0.7878,0.7884,0.7733,0.7717,0.7704,0.7674,0.7793,0,0,0,0,0,0.5984,0.6098,0.6336,0.6415,0.6487,0.669,0.677,0.6885,0.7049,0.7115,0.7274,0.7429,0.7562,0.7646,0.7782,0.788,0.7934,0.7907,0.7893,0.7881,0.7884,0.7944,0.7936,0.8031,0.8031,0.8031,0,0,0.5919,0.6085,0.6146,0.6378,0.6508,0.6622,0.6743,0.6858,0.6944,0.7132,0.7265,0.7386,0.7573,0.7687,0.7745,0.7785,0.7869,0.7878,0.7866,0.7877,0.7941,0.7932,0.7923,0.8029,0.803,0.803,0,0,0.5858,0.5995,0.6077,0.6204,0.64,0.6535,0.6553,0.6779,0.6867,0.7003,0.7146,0.7251,0.7477,0.7604,0.7698,0.7682,0.7785,0.772,0.7648,0.7704,0.7696,0.7691,0.7685,0.7681,0.7723,0.7722,0.7722,0,0.5753,0.593,0.6105,0.6212,0.631,0.6484,0.6567,0.6683,0.6912,0.6975,0.7016,0.7303,0.7441,0.7587,0.7582,0.7652,0.768,0.7696,0.7683,0.7679,0.7677,0.7674,0.7671,0.7713,0.7714,0.7715,0.7716,0,0.579,0.591,0.5952,0.6169,0.6271,0.6365,0.6554,0.6636,0.674,0.687,0.7006,0.7177,0.735,0.7393,0.7497,0.7554,0.7572,0.7645,0.7717,0.7655,0.7656,0.7657,0.77,0.7703,0.7706,0.7708,0,0,0.5614,0.5924,0.5936,0.6036,0.6264,0.636,0.646,0.663,0.6696,0.6847,0.6937,0.7123,0.7192,0.7298,0.7417,0.7466,0.7443,0.7534,0.7542,0.7512,0.7516,0.746,0.7456,0.7512,0.7512,0.7513,0.75,0,0.5587,0.5778,0.5937,0.6069,0.6181,0.6347,0.6435,0.6583,0.6706,0.682,0.6956,0.7085,0.7166,0.7231,0.7286,0.7433,0.7446,0.7436,0.7598,0.7601,0.7547,0.7456,0.7399,0.7379,0.7502,0.7502,0.7502,0,0.5583,0.5727,0.5868,0.6083,0.6136,0.6212,0.6379,0.6485,0.6656,0.6743,0.6859,0.6983,0.7097,0.7155,0.7315,0.7305,0.738,0.7462,0.7465,0.7488,0.7548,0.7477,0.7377,0.7373,0.7504,0.7504,0.7504,0,0.544,0.5669,0.5784,0.5864,0.6117,0.6166,0.6274,0.6446,0.6537,0.6682,0.6743,0.6899,0.6985,0.7103,0.7266,0.7293,0.7408,0.748,0.7483,0.7479,0.7502,0.7498,0.7412,0.7547,0.7547,0.7547,0.7547,0,0.5395,0.5475,0.5723,0.5793,0.5888,0.6069,0.6158,0.628,0.6431,0.6528,0.668,0.6768,0.6977,0.709,0.7217,0.733,0.7368,0.7441,0.7474,0.7428,0.7418,0.7481,0.7487,0.7547,0.7547,0.7547,0.7547,0,0.5253,0.5422,0.5558,0.5784,0.5843,0.5903,0.6098,0.6172,0.6302,0.6422,0.6461,0.6666,0.6806,0.698,0.7176,0.7262,0.7361,0.7411,0.7303,0.7323,0.7317,0.7315,0.7269,0.7272,0.7401,0.74,0.7398,0,0.5214,0.528,0.5513,0.5588,0.569,0.581,0.5903,0.6083,0.6173,0.6371,0.6421,0.6573,0.6704,0.692,0.7086,0.7237,0.7292,0.7266,0.7316,0.7267,0.7293,0.7287,0.7295,0.7253,0.725,0.7249,0.7247,0,0.5127,0.5207,0.5334,0.549,0.5596,0.5728,0.5866,0.5919,0.6127,0.6221,0.6366,0.6466,0.6666,0.6814,0.6985,0.7097,0.7206,0.7229,0.7238,0.7193,0.7128,0.7164,0.7269,0.723,0.7232,0.7233,0.7234,0.7235,0.5038,0.5103,0.5276,0.5413,0.5535,0.566,0.574,0.588,0.6003,0.6179,0.6277,0.6418,0.6587,0.6828,0.6934,0.7048,0.7088,0.7101,0.7104,0.7105,0.7091,0.7107,0.708,0.708,0.7081,0.7082,0.7082,0,0.4959,0.5078,0.5201,0.5389,0.5496,0.5587,0.5745,0.5828,0.595,0.6097,0.6222,0.6387,0.6532,0.6708,0.6864,0.6921,0.6975,0.6956,0.6954,0.6978,0.7046,0.7023,0.6909,0.6909,0.6909,0.6909,0.6909,0.6909,0.4931,0.5047,0.5145,0.5322,0.5442,0.5581,0.5662,0.5778,0.5896,0.6073,0.6193,0.6307,0.6466,0.6634,0.677,0.6818,0.6869,0.6835,0.6898,0.6958,0.6973,0.6988,0.6967,0.6844,0.6844,0.6822,0.6821,0.6821]},{"header":{"parameterUnit":"m.s-1","parameterCategory":1,"la1":30.2991,"la2":30.254,"lo1":-89.0895,"lo2":-89.0444,"dy":0.0017,"dx":0.0017,"nx":28,"ny":28,"refTime":"2024-07-09T21:00:00:Z","depth":0,"parameterNumber":3,"parameterNumberName":"V-component_of_WINDS"},"data":[0,0,0,0,0,0,0,0,0,0,0,0,0,0,0,0,0,0,0,0,0,0,0,0,0,0,0,0,0,0,0,0,0,0,0,0,0,0,0,0,0,0,0,0,0,0,0,0,0,0,0,0,0,0,0,0,0,0,1.1673,1.1675,0,1.1833,1.1835,1.1837,1.2019,1.2022,1.2025,1.2027,1.2187,1.2189,1.2191,0,0,0,0,0,0,0,0,0,0,0,0,0,1.1523,1.1525,1.1673,1.1675,1.1677,1.1833,1.1835,1.1837,1.2019,1.2022,1.2025,1.2029,1.2187,1.2189,1.2191,0,0,0,0,0,0,0,0,0,0,0,0,0,1.1626,1.1526,1.1673,1.1787,1.1799,1.1832,1.1835,1.1838,1.2018,1.2022,1.2026,1.203,1.2186,1.2189,1.2191,1.2125,0,0,1.2199,1.22,0,0,0,0,0,0,0,0,1.162,1.1631,1.1768,1.1779,1.1792,1.1911,1.1841,1.1934,1.2017,1.1935,1.2027,1.2032,1.2092,1.2102,1.2123,1.2132,1.2139,1.2199,1.2201,1.2202,1.2203,0,0,0,0,0,0,0,1.1613,1.1625,1.1737,1.177,1.1785,1.1829,1.1848,1.1859,1.1988,1.1942,1.1956,1.1972,1.2099,1.212,1.2128,1.2141,1.2199,1.2201,1.2203,1.2204,1.2104,1.21,0,0,0,0,0,0,1.1589,1.1618,1.1731,1.1741,1.1715,1.1828,1.185,1.1868,1.1988,1.2011,1.1969,1.198,1.2114,1.2125,1.2134,1.2065,1.2202,1.2204,1.2206,1.2108,1.2103,1.2099,0,0,0,0,0,0,1.1585,1.1597,1.1725,1.1684,1.1703,1.1827,1.1846,1.1869,1.1891,1.2009,1.2032,1.1967,1.2117,1.2131,1.2126,1.2073,1.2205,1.2208,1.2113,1.2107,1.2101,1.1924,0,0,0,0,0,0,1.158,1.1595,1.1571,1.1682,1.1705,1.1714,1.1843,1.1869,1.1895,1.1912,1.2013,1.2034,1.2122,1.2121,1.2129,1.2079,1.221,1.2119,1.2111,1.2103,1.1936,1.1913,1.1894,0,0,0,0,0,1.1574,1.1515,1.1569,1.1582,1.1678,1.1711,1.1724,1.1827,1.189,1.1867,1.1943,1.203,1.2077,1.2119,1.2129,1.2079,1.2123,1.2113,1.2104,1.1945,1.1917,1.1894,0,0,0,0,0,0,1.1394,1.1531,1.1593,1.1568,1.1626,1.1742,1.1716,1.1795,1.1836,1.185,1.1975,1.1996,1.1976,1.2028,1.2072,1.2021,1.2113,1.2105,1.1989,1.1963,1.1943,1.1931,1.2212,0,0,0,0,0,1.1351,1.1367,1.1486,1.1452,1.1478,1.1591,1.161,1.1684,1.1749,1.1775,1.185,1.1909,1.1938,1.1953,1.1986,1.1944,1.1968,1.1915,1.1893,1.1876,1.1867,1.1849,1.1826,1.2068,1.2068,1.2068,0,0,1.1263,1.134,1.1342,1.1418,1.1472,1.1485,1.1611,1.1619,1.163,1.1776,1.1776,1.1833,1.1907,1.1883,1.1877,1.1925,1.1806,1.1864,1.1848,1.185,1.1837,1.1813,1.1793,1.2062,1.2063,1.2064,0,0,1.111,1.117,1.1149,1.12,1.1281,1.1356,1.135,1.1454,1.1498,1.15,1.161,1.1624,1.167,1.1718,1.1749,1.1613,1.1695,1.162,1.151,1.149,1.1471,1.1455,1.1406,1.1387,1.1611,1.1611,1.161,0,1.099,1.1015,1.1127,1.1129,1.1158,1.1292,1.1271,1.1315,1.1401,1.1418,1.1472,1.1533,1.1592,1.1581,1.1548,1.1568,1.1565,1.1609,1.1465,1.145,1.1436,1.1391,1.1372,1.1601,1.1602,1.1603,1.1604,0,1.0864,1.0879,1.0852,1.0933,1.0959,1.0949,1.1059,1.1072,1.1144,1.1213,1.1214,1.129,1.134,1.1343,1.1413,1.1342,1.137,1.1442,1.1536,1.1401,1.1361,1.1345,1.1587,1.1591,1.1593,1.1596,0,0,1.0602,1.0745,1.0733,1.0771,1.087,1.0883,1.0878,1.0928,1.0937,1.0991,1.0991,1.1026,1.1094,1.1128,1.1205,1.1188,1.1075,1.1263,1.1267,1.1225,1.1001,1.0945,1.0923,1.113,1.1127,1.1125,1.0994,0,1.0467,1.0468,1.0568,1.0541,1.0556,1.0683,1.0679,1.0738,1.0802,1.0824,1.0895,1.0918,1.1006,1.1028,1.1016,1.1091,1.1031,1.1102,1.1129,1.1129,1.1107,1.0903,1.0845,1.0718,1.0979,1.0977,1.0975,0,1.0309,1.0355,1.0329,1.0428,1.0438,1.0432,1.0486,1.0505,1.0574,1.0623,1.066,1.0748,1.0749,1.0838,1.0842,1.0887,1.0905,1.0942,1.094,1.0947,1.1043,1.0903,1.068,1.0661,1.0951,1.0953,1.0955,0,1.0121,1.0176,1.0168,1.0197,1.0311,1.0305,1.0352,1.0426,1.0449,1.0495,1.0512,1.0557,1.0582,1.0614,1.0711,1.0767,1.0703,1.08,1.0743,1.074,1.0724,1.0723,1.05,1.0734,1.0734,1.0735,1.0735,0,0.9959,0.9938,1.0085,1.008,1.006,1.0175,1.0152,1.0211,1.0275,1.0283,1.0395,1.04,1.0528,1.0547,1.0622,1.0614,1.0624,1.0662,1.0683,1.0652,1.0647,1.0665,1.0677,1.073,1.0731,1.0732,1.0733,0,0.9746,0.9843,0.9843,0.9951,0.9978,0.9958,1.0051,1.0051,1.0122,1.013,1.0139,1.025,1.0278,1.0378,1.0431,1.0482,1.0449,1.0488,1.0425,1.0439,1.0375,1.038,1.0156,1.0132,1.038,1.0377,1.0375,0,0.9637,0.9624,0.9731,0.9744,0.9787,0.9807,0.9832,0.9944,0.9965,1.0042,1.0032,1.0069,1.0105,1.0144,1.0229,1.0269,1.031,1.0229,1.0317,1.0287,1.0309,1.0309,1.0308,1.021,1.0206,1.0204,1.0202,0,0.9432,0.9481,0.9512,0.956,0.9586,0.9629,0.9678,0.9682,0.9808,0.9825,0.9855,0.9883,0.9937,0.9972,1.0026,1.0075,1.0158,1.0173,1.0162,1.0131,1.0095,1.0114,1.0373,1.0178,1.018,1.0182,1.0183,1.0184,0.9269,0.9263,0.9337,0.9368,0.9416,0.9459,0.9464,0.9536,0.9563,0.9616,0.968,0.9702,0.9771,0.9853,0.9895,0.9913,0.996,0.9943,0.9939,0.9934,0.9919,1.0092,0.9924,0.9924,0.9925,0.9926,0.9927,0,0.9071,0.9124,0.9151,0.9217,0.924,0.9317,0.9375,0.939,0.9408,0.9466,0.9499,0.9533,0.9567,0.9655,0.9698,0.9695,0.9735,0.9703,0.9704,0.9714,0.9875,0.9881,0.967,0.967,0.967,0.967,0.967,0.967,0.897,0.8964,0.9021,0.904,0.9094,0.9117,0.9144,0.9183,0.923,0.9263,0.9293,0.9349,0.9419,0.9467,0.9502,0.9527,0.9537,0.9492,0.9529,0.9678,0.9703,0.9726,0.9732,0.9494,0.9493,0.9367,0.9366,0.9365]}]]